Wind_Speed
26 24 24 24 24 23 21 19 17 17 15 14 14 14 14 13 13 11 10 8 8 8 9 9 9 9 11 12 13 14 14 14 14 12 12 11 10 10 10 9 9 8
27 26 25 25 25 24 22 20 18 17 16 14 14 14 15 14 13 12 10 9 8 7 7 8 7 7 8 8 10 12 12 12 11 10 10 9 8 8 8 7 7 6
26 26 26 26 27 25 23 21 19 18 17 16 15 15 15 15 14 13 11 10 9 8 8 7 7 6 6 6 7 9 10 10 9 8 8 8 7 6 6 5 5 5
28 27 27 27 28 26 24 23 21 20 19 18 17 17 16 16 15 14 13 11 10 9 8 7 6 5 5 5 6 7 8 8 8 7 7 7 6 6 5 5 4 5
31 29 28 29 29 28 26 25 24 22 22 21 19 18 18 17 16 15 14 13 12 10 9 8 6 5 4 4 5 6 7 7 7 6 6 6 5 5 5 4 4 4
30 29 29 30 30 30 29 27 26 25 24 23 21 20 20 19 18 17 16 15 14 12 11 9 7 6 4 3 3 4 5 5 6 6 5 5 5 4 4 4 3 3
30 30 32 32 33 33 32 31 29 27 26 25 24 23 22 21 20 19 18 17 16 15 13 11 9 8 6 5 3 3 4 4 5 5 5 5 5 5 5 4 4 3
32 34 34 34 34 35 35 34 32 30 28 27 26 26 25 24 23 21 20 19 18 17 15 13 11 9 8 7 5 4 4 4 4 4 5 5 6 6 6 6 6 5
34 36 37 35 34 35 36 36 35 33 31 29 28 28 27 26 25 23 22 21 21 19 17 14 12 10 9 8 6 6 5 4 4 4 4 4 5 6 7 8 8 7
32 36 38 37 35 35 36 37 36 34 33 31 30 29 29 28 27 24 23 23 22 20 18 16 14 12 10 8 7 6 6 5 4 3 3 3 4 6 7 8 8 9
31 33 36 37 36 35 35 35 35 34 33 33 32 31 30 30 28 26 25 25 23 21 19 17 15 12 10 9 7 6 5 3 2 2 3 4 5 6 7 7 8 9
29 31 33 35 35 34 33 33 33 33 33 33 33 33 32 31 30 29 27 26 24 22 19 17 14 12 11 9 7 5 2 0 2 4 6 7 8 8 8 8 9 9
26 29 31 32 33 32 32 31 31 31 32 33 33 30 29 30 31 30 29 27 24 21 19 17 15 13 11 9 6 4 1 2 5 7 8 9 10 10 10 10 10 10
22 26 29 31 31 30 29 29 30 31 31 32 32 29 27 30 33 32 29 27 24 21 19 16 15 13 11 8 5 2 1 3 6 7 7 8 9 10 10 11 11 10
16 21 25 28 30 29 28 28 29 30 30 31 32 31 31 33 33 30 28 26 23 21 19 17 16 14 11 8 5 3 2 3 5 5 5 7 8 9 10 11 11 11
12 15 19 23 27 28 29 29 29 29 29 30 32 33 33 34 33 30 29 28 25 22 20 18 16 13 10 8 5 3 2 2 2 3 5 6 7 8 10 11 12 12
13 12 13 17 22 25 27 28 28 28 28 30 32 32 33 34 33 32 31 29 25 23 20 18 14 11 9 7 5 3 1 0 2 3 5 6 7 8 9 11 12 13
15 12 11 14 18 22 24 25 26 27 27 30 31 31 32 33 33 33 31 28 25 22 19 16 13 11 9 6 4 2 1 1 2 3 4 5 7 8 10 11 13 14
18 14 12 12 15 18 22 23 25 26 27 29 31 31 33 34 34 33 30 27 24 21 18 16 14 12 9 7 4 2 2 2 2 3 5 6 8 9 10 12 13 14
19 16 14 12 13 16 19 22 23 25 27 28 30 32 35 36 35 32 29 27 24 20 17 16 14 12 10 6 3 2 3 3 3 5 6 7 9 11 12 13 14 15
18 16 14 12 12 15 19 21 22 25 26 28 32 35 37 36 34 32 29 26 22 19 17 16 14 11 8 5 3 3 4 5 5 7 8 9 11 13 13 14 15 16
16 15 14 12 12 16 19 21 23 25 27 31 34 35 36 35 33 31 29 25 21 19 18 16 13 10 7 5 4 4 5 6 7 8 9 10 12 14 15 15 15 16
16 14 13 13 14 17 20 22 24 26 30 33 35 35 35 35 34 31 27 24 22 21 18 15 12 9 7 6 6 6 7 8 8 9 10 12 14 16 16 15 17 20
16 14 13 14 15 18 22 24 25 27 30 33 36 37 37 37 34 30 27 24 22 20 16 11 9 8 7 7 7 7 8 10 10 9 11 13 14 14 15 15 18 23
16 15 14 15 17 20 23 25 26 28 30 32 33 33 32 31 31 29 27 25 21 17 13 9 6 7 8 9 8 8 10 12 11 10 12 13 13 14 15 15 17 20
17 15 15 16 17 21 24 25 26 28 30 32 33 32 30 29 28 26 25 22 17 13 11 9 7 7 9 9 9 10 13 14 13 12 13 13 14 14 16 17 18 18
Wind_Direction
218 222 227 229 228 225 219 213 205 201 196 189 184 177 170 166 164 164 157 142 125 110 101 94 87 83 79 72 71 80 83 79 78 77 74 73 71 67 62 56 50 46
222 227 231 232 232 230 226 221 214 210 205 198 190 180 173 171 170 171 168 159 144 132 122 114 105 94 88 79 71 79 85 83 81 80 77 76 75 70 64 60 53 47
228 232 235 235 234 234 233 228 223 218 213 207 198 186 180 177 176 177 176 172 162 151 141 132 123 111 101 91 78 79 85 85 84 85 84 81 79 76 69 64 56 48
229 233 236 237 236 237 237 234 229 224 219 214 205 195 189 185 182 182 182 181 177 166 157 149 137 123 110 98 84 78 79 78 77 80 83 79 74 70 64 59 52 45
227 231 234 236 236 237 238 237 234 229 224 219 212 204 198 194 191 190 189 189 187 179 171 165 156 140 123 109 92 79 78 75 67 69 77 75 65 58 49 44 39 33
227 232 235 234 234 237 239 239 237 233 229 222 216 211 204 201 199 198 198 197 193 189 184 179 175 168 158 141 106 83 81 73 59 58 67 65 58 52 46 36 23 12
225 231 235 233 232 235 238 240 238 235 233 226 219 215 210 206 204 204 204 202 198 195 191 188 183 178 172 160 141 110 85 64 48 46 47 42 38 36 34 24 11 355
227 230 235 233 232 233 236 238 238 236 235 230 222 218 215 211 209 208 205 203 199 196 192 189 184 179 173 160 150 137 109 77 57 45 31 23 21 17 11 5 358 347
232 233 236 236 234 234 236 237 237 236 235 233 227 222 218 215 213 211 207 202 198 195 191 187 184 181 175 165 157 143 125 104 81 60 35 19 10 2 355 350 346 340
237 236 238 238 237 237 238 238 238 236 235 234 231 225 220 217 215 213 208 202 197 193 190 187 185 182 176 170 163 147 132 119 97 70 42 17 355 347 342 338 335 330
242 242 241 242 242 240 240 240 239 237 235 233 232 227 222 219 216 212 208 203 198 194 190 187 185 181 175 172 169 161 148 127 84 38 3 345 334 330 327 323 319 315
246 247 246 245 245 245 244 242 240 239 236 233 232 227 220 217 215 212 207 203 199 195 190 186 181 177 174 173 175 177 174 11 358 352 338 329 325 323 318 313 309 305
250 252 252 251 250 248 247 244 242 241 238 234 229 221 216 217 216 211 207 203 199 194 189 185 181 177 179 181 183 190 204 338 341 340 332 327 327 324 319 314 307 303
257 257 257 257 256 253 250 246 244 244 240 235 228 221 220 222 217 209 204 201 197 192 187 185 183 182 186 189 190 203 291 335 337 338 336 338 340 337 333 326 317 309
275 266 263 261 258 256 253 250 247 246 241 236 230 224 220 217 211 204 202 199 194 191 187 185 186 188 193 198 201 218 285 323 335 349 2 3 356 350 346 339 330 321
299 280 271 266 260 255 253 251 248 245 239 231 226 220 213 208 202 201 203 200 193 189 185 184 187 191 197 202 205 219 259 318 353 21 25 14 359 348 343 340 335 326
313 292 274 266 261 255 251 247 244 240 233 224 218 214 208 203 199 198 199 196 190 186 183 181 183 187 192 198 200 201 213 291 11 15 11 3 354 345 337 334 333 327
316 302 277 262 258 254 248 242 238 233 226 217 212 207 201 196 194 194 193 190 186 183 180 178 179 182 187 189 189 200 255 319 345 354 354 349 346 342 336 333 329 325
313 304 284 263 255 251 246 239 232 225 218 212 207 201 195 191 191 190 188 186 183 180 179 179 180 181 182 184 194 240 302 316 321 334 337 339 341 339 334 331 328 324
309 302 288 271 257 250 244 236 227 220 215 209 202 195 190 188 187 184 181 181 180 179 181 182 182 180 179 185 207 268 304 310 314 324 331 334 336 335 331 328 326 323
306 299 288 275 259 251 243 232 223 217 211 204 198 193 189 185 182 178 176 176 178 181 184 184 183 178 177 191 225 272 296 306 310 317 323 325 327 329 327 322 322 320
302 295 284 270 255 246 237 226 220 214 207 201 196 190 185 181 178 175 174 175 178 183 184 183 182 180 186 209 237 271 294 303 304 307 313 315 319 322 320 314 314 316
297 290 278 263 247 238 231 224 218 211 204 199 192 185 180 177 175 174 176 178 181 184 185 183 183 188 202 220 241 274 296 300 299 298 301 306 311 314 312 307 307 312
289 284 273 257 240 232 228 223 215 208 202 196 190 184 179 176 174 175 177 180 182 183 183 183 188 203 222 235 250 277 299 303 298 293 294 300 305 306 304 300 302 310
280 276 267 252 235 229 227 221 212 205 198 191 186 179 174 173 175 175 175 178 180 181 183 187 199 224 238 245 257 283 301 302 295 289 291 296 300 301 302 300 298 302
273 268 260 246 232 228 224 216 208 202 192 185 181 176 173 176 177 174 172 175 178 185 196 206 221 237 243 249 265 291 302 300 293 289 291 297 301 302 302 301 299 298
Height
806 808 809 810 811 813 814 815 817 818 819 819 820 821 822 823 824 825 825 826 826 826 827 827 827 828 828 829 829 830 830 831 831 832 832 833 833 833 834 834 834 834
805 807 808 809 810 812 814 815 816 817 818 819 819 820 821 822 823 824 825 826 826 827 827 827 827 827 828 828 828 829 830 830 830 831 832 832 833 833 833 833 833 834
805 806 807 808 809 811 813 814 816 817 818 819 819 820 820 821 822 823 824 825 826 827 827 827 827 827 828 828 828 828 829 830 830 830 831 831 832 832 832 832 832 832
803 804 806 807 808 810 811 813 814 816 817 818 819 819 820 820 821 822 823 824 825 826 827 827 828 828 828 828 828 828 829 829 830 830 830 830 831 831 831 831 831 831
799 801 803 804 806 807 809 810 812 813 814 816 817 818 819 820 821 821 822 823 824 825 826 827 828 828 828 829 829 829 829 830 830 830 830 830 831 831 830 831 830 830
798 800 800 801 803 804 805 806 808 810 811 813 815 816 817 818 819 820 821 822 823 824 824 825 827 827 828 829 829 829 830 830 830 831 831 831 831 831 830 830 830 830
796 796 796 798 799 800 801 803 805 806 808 810 811 813 814 816 817 818 819 820 821 822 823 824 825 826 826 827 828 829 829 830 830 831 831 831 831 831 831 830 830 830
792 792 793 794 795 796 798 799 801 803 805 807 808 810 811 812 814 815 816 817 818 819 821 822 823 824 824 826 827 827 828 829 830 830 831 831 831 830 830 830 830 829
790 790 790 790 792 793 794 796 798 799 801 803 805 806 808 809 811 812 813 814 816 817 818 819 820 822 823 824 825 825 826 827 828 829 830 830 830 830 830 829 829 828
786 787 787 788 789 790 791 793 795 797 798 800 802 804 805 807 808 810 811 812 813 814 815 817 818 819 820 821 822 823 824 825 826 827 828 829 829 829 829 828 828 827
784 785 785 785 786 787 789 791 793 794 795 797 799 801 803 805 806 808 809 810 811 812 813 815 816 817 818 819 820 821 821 823 824 825 826 827 827 827 827 827 827 827
783 783 783 783 784 785 787 789 791 792 793 794 795 797 799 802 804 805 807 808 809 810 811 813 814 815 816 817 818 819 820 820 821 822 824 824 825 825 825 826 826 825
781 781 781 782 783 784 785 786 788 789 789 791 792 794 798 801 802 803 805 806 807 809 810 811 812 813 814 815 816 817 818 819 820 820 821 822 822 822 823 823 823 823
780 780 780 780 781 781 782 783 784 785 786 788 790 793 797 799 800 801 803 805 806 807 807 808 809 810 811 813 814 816 817 817 818 819 819 819 820 820 820 821 821 821
778 778 778 778 779 779 780 780 781 782 783 786 787 789 791 794 797 801 803 805 805 804 804 805 807 808 810 811 812 814 815 816 817 817 817 817 818 818 818 818 819 818
776 775 775 776 776 777 777 778 778 779 780 782 784 786 787 790 794 798 801 802 803 803 802 803 805 807 808 810 811 812 813 815 815 816 816 816 816 816 816 816 816 816
775 774 774 773 774 774 775 776 776 777 778 779 781 783 785 787 790 794 798 800 801 801 802 803 805 806 808 809 810 811 812 814 814 815 815 815 814 814 814 814 813 813
773 772 772 771 772 772 773 774 774 775 776 777 779 780 783 785 788 791 795 797 799 801 802 803 804 806 807 809 810 811 812 813 813 814 814 814 813 813 813 812 811 810
771 770 770 769 769 770 770 771 772 773 774 775 776 779 781 783 785 788 791 794 797 800 802 802 803 804 806 808 809 810 811 811 812 812 812 812 811 811 811 810 809 808
769 769 767 767 768 768 768 769 770 771 772 773 775 777 779 781 782 785 788 792 795 799 800 802 802 802 804 806 807 808 809 810 810 810 810 810 810 809 809 808 808 806
768 767 766 766 766 766 766 767 768 769 771 772 774 776 777 779 780 783 787 791 794 797 799 801 802 802 803 805 806 807 808 808 809 808 808 808 808 807 807 806 806 804
767 766 765 765 765 764 764 765 766 767 769 770 772 774 775 777 780 783 786 790 792 795 798 800 801 801 802 803 804 805 805 806 807 806 806 806 805 805 804 804 803 802
765 764 763 763 763 762 762 763 764 765 766 768 770 772 774 775 778 781 785 788 791 794 796 798 799 800 800 801 802 803 803 804 804 804 804 803 802 802 801 801 800 799
762 762 761 761 760 760 760 761 762 763 765 767 768 770 771 773 775 779 783 787 790 793 796 797 798 798 799 800 800 801 801 801 802 802 801 800 799 798 798 797 796 795
760 759 758 758 758 757 758 758 760 761 763 766 768 770 772 775 777 779 783 787 790 793 795 796 797 797 798 798 799 799 799 800 800 800 799 797 797 796 795 795 793 792
757 756 755 755 755 755 756 757 758 760 762 765 767 770 773 777 780 782 785 788 790 793 794 795 796 796 796 797 797 798 798 798 798 797 796 795 794 793 792 792 790 789